Theta_e
300 301 303 303 304 305 306 306 307 307 306 308 311 313 315 316 312 311 311 310 309 309 309 308 307 307 306 306 306 306 306 306 304 302 300 300 299 298 298 298 298 299 299 297
300 301 302 302 303 304 304 305 305 306 304 306 308 309 310 310 310 310 310 309 310 310 310 308 305 306 305 306 305 304 304 304 303 302 302 301 300 300 300 297 297 297 296 295
302 302 300 300 300 302 303 304 305 304 305 303 302 305 306 306 305 305 306 307 307 308 308 308 304 304 304 304 304 304 303 303 302 302 301 300 300 299 297 296 295 295 295 294
301 302 302 299 300 301 301 303 303 304 304 304 303 306 305 306 306 303 304 305 305 305 304 302 302 302 302 303 304 303 303 302 301 300 300 300 300 300 300 298 297 295 297 298
301 299 299 299 301 299 300 302 302 303 304 303 302 302 304 305 304 304 304 305 306 303 300 299 296 296 296 298 301 302 302 301 299 299 299 300 301 302 300 299 295 296 298 298
300 300 300 302 297 298 300 300 300 301 302 306 304 304 306 305 305 304 304 303 302 298 297 297 298 297 298 298 299 300 300 299 299 298 299 299 301 301 299 299 298 297 296 295
300 299 299 300 301 301 300 300 303 305 304 306 303 304 305 303 303 302 303 301 297 298 299 299 299 299 298 298 298 298 299 299 298 298 298 299 300 300 299 298 298 297 296 294
301 302 300 299 299 301 301 302 306 307 307 304 299 302 304 303 302 301 298 297 295 296 297 297 297 297 297 297 297 297 298 298 297 297 298 298 298 298 297 297 297 296 295 295
301 301 295 293 294 298 302 303 304 305 305 308 303 301 302 303 300 297 296 296 294 293 293 292 292 295 295 295 295 296 296 296 295 296 296 296 296 295 295 295 295 294 293 293
298 300 297 295 292 294 300 301 305 306 307 307 305 308 307 305 301 297 295 296 293 292 292 291 290 290 291 292 293 293 293 294 293 293 294 294 293 293 294 293 292 292 291 291
299 299 298 292 294 299 302 304 303 305 307 309 307 307 302 300 299 300 296 295 294 292 291 291 290 289 289 290 291 291 291 292 292 291 292 292 291 291 291 291 292 291 291 290
299 301 302 300 293 291 294 303 305 307 308 306 307 307 294 293 294 296 294 293 293 292 290 290 289 289 289 289 289 290 291 291 291 291 291 291 290 290 290 290 290 291 291 290
300 302 302 301 296 291 297 296 299 304 304 307 309 304 295 294 294 294 294 293 293 291 290 289 289 289 288 288 288 288 288 290 290 290 290 290 289 289 290 290 289 290 290 289
294 300 301 301 302 296 297 298 297 299 304 303 304 304 303 295 296 295 295 294 292 290 289 289 289 288 287 286 286 286 287 287 289 289 289 290 289 289 289 289 289 289 289 289
291 294 294 294 295 297 300 300 299 298 299 301 300 300 297 296 296 295 294 294 293 290 289 288 287 287 286 285 285 285 285 286 287 288 289 289 289 289 288 288 288 288 288 288
290 291 291 294 295 297 299 298 298 300 300 300 299 299 297 299 297 295 295 295 294 290 288 286 285 284 284 283 283 283 284 285 286 288 289 288 288 288 288 288 287 287 287 286
288 290 290 290 293 290 295 295 297 298 292 293 298 296 293 294 294 289 289 290 290 287 285 284 283 282 281 280 280 281 283 285 286 287 287 287 287 287 287 287 286 286 286 285
288 290 290 290 288 291 293 293 293 292 291 291 292 291 291 290 286 284 284 285 284 283 282 281 280 279 279 278 278 280 283 285 286 286 286 286 286 286 286 286 285 285 285 285
289 288 289 290 291 291 292 291 292 292 290 289 289 289 289 289 288 286 283 282 281 280 280 278 277 277 277 277 278 280 281 282 283 284 285 286 286 286 285 285 285 284 284 283
289 290 291 288 290 290 290 288 288 290 289 288 288 288 288 293 290 287 283 281 280 279 278 277 276 276 276 275 277 278 278 278 278 279 283 284 285 285 284 284 283 283 283 282
285 287 290 289 291 291 288 288 289 293 289 288 288 288 288 287 287 285 282 281 279 277 276 276 275 275 274 274 276 276 276 275 276 279 282 283 284 284 283 283 282 282 282 282
285 286 288 290 289 291 288 288 289 288 288 287 287 288 288 288 287 287 284 281 279 277 276 275 275 274 273 273 275 275 274 275 277 278 279 281 281 281 281 282 281 281 282 283
286 286 286 289 289 289 288 288 288 288 288 288 287 287 287 286 286 285 284 281 278 276 275 274 274 274 272 272 272 274 273 275 277 278 277 278 279 280 280 280 281 282 282 281
285 282 288 287 285 287 287 286 288 287 287 287 284 283 282 282 282 281 281 280 279 276 274 273 273 273 272 271 271 272 273 275 276 276 276 277 278 278 279 280 280 281 281 280
285 284 285 286 284 287 284 283 282 285 281 279 279 279 278 279 278 277 277 277 276 275 273 272 272 272 270 271 271 272 273 274 275 275 275 275 276 277 277 277 278 279 279 279
284 285 286 286 283 284 283 275 276 277 274 272 273 275 275 274 274 273 274 273 273 273 272 272 271 271 270 271 271 271 272 273 274 274 274 274 275 276 276 277 277 277 277 277
Wind_Speed
10 10 18 31 24 27 20 18 23 22 6 10 17 24 30 22 19 19 18 17 17 18 18 16 15 15 18 21 23 25 26 28 29 28 28 25 25 22 19 20 24 26 25 23
6 20 28 17 16 21 21 20 24 23 4 9 11 20 26 21 22 22 22 21 23 21 21 14 16 17 19 21 24 25 27 29 32 31 29 21 24 20 19 19 22 27 26 26
16 13 3 15 17 20 22 23 27 25 13 5 4 15 25 23 21 21 24 24 23 22 22 18 14 18 19 21 24 27 30 31 32 28 27 18 20 15 18 20 23 31 27 29
15 18 24 19 19 17 21 22 22 19 14 14 6 13 25 22 20 17 20 20 21 23 18 14 14 14 21 23 22 25 27 29 30 30 29 28 27 22 22 23 22 24 29 30
7 6 4 13 22 10 18 10 18 17 15 17 14 8 24 14 21 23 19 19 19 12 11 11 9 10 12 15 21 23 24 27 28 31 29 28 24 20 17 19 22 29 28 32
23 13 11 18 4 6 17 10 9 3 10 10 27 16 23 19 27 23 17 14 11 8 6 4 2 3 5 10 16 20 23 25 26 28 28 27 26 21 19 21 22 22 22 25
11 20 20 15 19 16 6 9 4 5 7 11 5 13 23 5 4 7 14 6 4 4 4 4 4 4 5 10 14 16 20 21 23 25 26 26 25 24 23 23 20 21 22 24
7 8 6 9 22 10 14 15 6 7 6 8 7 12 15 11 12 10 3 6 6 6 5 5 4 3 4 7 10 13 16 17 20 22 22 21 21 21 20 21 18 19 21 23
4 6 1 2 1 8 12 11 15 4 2 4 8 15 17 19 11 3 7 9 8 7 7 7 7 7 4 4 6 9 12 13 15 18 19 19 20 20 19 18 17 16 16 17
5 8 5 4 1 2 7 2 5 5 6 9 11 12 12 5 5 5 7 9 7 6 6 7 7 8 7 5 2 5 8 10 12 14 16 17 18 19 17 16 17 17 16 17
3 7 4 1 7 13 6 5 6 2 6 4 6 5 6 8 9 8 9 9 6 6 5 6 7 8 8 8 5 1 4 7 9 12 13 14 15 16 16 17 18 17 17 17
5 4 8 11 1 2 3 12 6 4 4 8 7 10 5 8 9 4 10 9 7 6 6 6 6 8 10 10 9 6 1 5 8 10 12 13 12 13 14 15 16 19 18 18
5 3 3 3 2 1 3 6 6 8 2 8 6 4 9 14 12 11 9 7 5 6 6 7 7 8 9 10 9 7 5 2 5 8 10 11 12 13 14 14 14 17 18 18
10 4 5 9 6 1 4 7 9 9 6 11 16 16 14 7 9 7 6 6 5 5 7 7 8 8 11 11 11 11 8 5 3 6 8 10 12 12 12 11 12 14 16 17
4 5 9 15 13 9 6 6 10 12 16 10 11 8 1 6 2 3 4 3 3 5 8 9 9 8 10 12 12 12 10 7 3 6 7 8 8 9 10 10 11 12 13 14
0 4 6 7 8 10 11 13 12 15 16 18 20 20 10 13 3 3 4 2 1 4 6 8 9 10 11 16 16 14 12 10 4 5 6 7 9 10 10 10 10 11 11 12
3 3 5 7 9 15 8 5 5 4 9 5 5 6 11 9 11 9 9 8 7 7 7 8 7 8 12 14 15 13 13 9 0 5 6 8 9 9 9 10 11 11 11 11
4 4 6 7 3 7 4 5 13 16 10 11 7 11 13 8 8 10 11 9 8 8 9 9 9 12 13 14 14 14 11 8 4 4 5 7 10 11 11 11 10 11 11 13
14 7 4 4 6 8 6 3 2 3 9 13 12 14 14 5 10 11 10 10 8 8 7 8 10 10 10 12 13 13 13 13 10 9 5 6 8 12 12 12 12 11 13 13
5 10 6 3 5 4 4 7 6 4 5 11 12 15 17 6 6 5 9 7 7 7 8 10 11 10 10 12 14 14 15 15 14 12 6 5 8 11 12 13 14 12 13 15
2 1 8 8 8 3 4 7 1 5 4 4 8 9 12 10 4 1 6 9 9 8 9 9 9 11 15 16 14 14 14 17 13 10 7 8 9 12 13 14 14 16 17 19
7 5 3 3 5 7 4 1 3 5 2 2 1 4 7 6 3 3 5 7 8 9 13 14 13 14 16 17 13 12 16 13 12 10 10 10 11 12 13 17 16 21 24 25
6 6 2 5 1 5 3 5 10 12 8 5 1 4 2 5 7 7 7 5 6 8 8 9 10 11 15 16 14 13 13 14 12 12 12 11 13 14 15 16 18 20 22 24
4 4 4 3 3 9 5 0 7 7 4 4 7 6 7 7 10 10 9 8 7 5 5 6 7 9 10 11 13 12 13 12 11 12 12 11 12 14 15 15 15 17 18 20
4 9 6 4 2 7 4 5 3 3 8 8 8 8 8 7 8 9 9 10 11 9 7 5 5 6 7 9 12 13 13 10 11 11 11 10 11 13 15 15 13 15 14 17
6 6 8 8 7 1 4 5 4 8 7 8 8 8 9 10 9 9 8 11 12 13 12 10 9 9 9 10 11 12 12 10 8 9 10 9 9 10 13 15 16 14 16 19
Wind_Direction
203 218 224 225 221 238 254 256 252 252 227 209 227 243 256 253 229 249 249 252 250 251 253 235 228 220 215 213 207 206 200 198 190 191 188 189 191 190 192 197 198 196 193 187
218 232 240 257 252 241 244 245 256 264 208 218 237 248 264 261 246 249 254 252 250 252 252 241 229 217 211 211 209 205 205 198 194 195 192 192 192 198 194 194 198 199 192 188
238 242 207 266 252 238 239 238 246 258 265 226 285 271 267 260 249 252 251 252 255 252 250 244 219 220 216 213 211 206 203 200 197 194 186 181 175 175 188 196 199 201 195 193
257 263 261 261 253 239 253 239 254 257 262 257 185 276 271 262 259 242 245 248 248 248 243 248 245 232 222 217 211 208 204 201 197 192 187 186 183 187 202 199 199 200 203 201
245 264 312 244 246 211 246 256 244 249 245 265 227 250 268 261 254 254 249 236 242 244 236 236 227 226 223 215 206 202 200 199 195 193 193 191 196 198 191 190 193 203 204 206
254 259 253 248 315 277 263 257 250 242 244 245 243 228 271 252 252 257 255 250 244 209 210 215 206 195 191 184 189 190 190 193 193 195 198 199 198 190 182 184 187 192 198 204
285 249 241 229 244 257 253 233 226 229 218 238 256 214 240 63 141 289 259 227 182 147 156 156 162 158 152 160 170 178 185 189 192 197 200 202 203 202 197 187 187 187 193 198
287 292 215 216 223 219 216 219 206 221 215 257 161 214 235 255 279 255 200 149 123 109 101 84 78 87 122 149 166 175 183 185 189 195 200 203 204 206 205 198 194 196 198 202
243 252 345 195 262 228 232 232 214 271 271 278 217 246 280 265 254 191 165 152 127 110 91 76 64 58 68 134 166 179 182 185 190 193 196 200 202 204 201 198 200 200 199 199
263 266 277 292 176 216 233 282 174 196 222 231 239 256 249 291 253 202 173 155 119 104 84 63 53 45 41 47 112 176 183 191 192 193 197 200 202 204 203 197 198 199 200 198
296 226 231 219 208 217 202 211 227 261 229 242 256 241 13 338 337 250 182 151 126 102 82 70 59 47 43 45 43 140 180 188 194 198 198 200 202 201 200 203 206 204 203 200
230 252 234 243 24 342 321 229 211 244 185 232 276 259 18 345 302 261 155 127 108 87 76 63 54 41 37 32 23 20 359 212 206 200 197 198 197 197 199 202 202 205 206 206
352 241 257 226 161 75 222 252 250 242 250 243 238 183 50 46 50 83 94 91 83 84 68 61 49 43 31 23 11 4 5 293 218 201 195 189 190 194 198 199 199 204 203 206
1 296 281 284 335 349 212 216 234 252 256 254 243 274 306 50 63 41 68 71 65 54 49 41 36 29 21 10 1 358 346 337 248 204 194 190 190 189 191 188 189 196 203 204
52 296 4 315 297 268 264 257 211 219 244 245 272 271 33 36 314 111 25 28 46 44 38 30 19 12 11 5 358 354 341 332 262 189 189 184 176 176 173 174 181 189 196 199
178 282 325 304 332 338 269 264 249 242 236 249 257 264 345 319 302 59 352 313 10 49 40 28 12 6 3 356 347 339 336 323 285 171 172 168 162 166 163 163 166 173 178 183
259 254 288 273 301 328 280 276 255 102 35 341 293 338 333 328 352 31 357 25 56 40 24 18 2 3 355 343 329 328 341 328 150 153 156 153 153 149 150 152 157 162 166 167
236 238 256 282 282 255 72 32 92 90 50 18 2 343 327 309 90 49 21 33 42 29 10 1 354 353 350 342 343 351 358 29 64 102 127 138 143 144 148 151 149 148 156 165
218 211 239 239 237 287 199 29 5 336 53 23 13 358 344 277 137 63 31 17 21 17 10 355 350 346 339 348 356 16 23 36 42 42 73 124 142 144 147 147 147 146 147 150
237 216 218 183 243 255 44 316 279 249 67 20 23 24 18 67 82 23 4 22 35 32 12 1 1 1 359 359 17 35 32 36 23 17 42 105 135 141 142 141 136 137 142 139
166 190 223 245 255 240 321 312 61 206 95 58 29 31 33 47 51 334 24 33 34 36 24 18 22 20 13 11 22 41 40 31 18 31 64 96 119 129 132 132 132 134 129 126
197 183 211 221 240 242 313 96 69 111 144 154 65 64 51 39 39 35 75 49 31 27 22 20 23 24 16 18 25 41 42 29 40 51 67 85 101 114 124 128 127 128 126 125
206 196 217 223 326 137 103 132 166 174 172 200 107 45 24 55 29 38 50 53 52 39 30 26 31 28 26 26 28 36 28 41 52 68 69 79 98 103 109 116 122 126 130 128
231 175 205 173 178 185 157 48 162 169 151 109 45 46 28 13 11 7 13 20 28 40 34 26 40 44 35 30 40 41 38 50 64 74 78 89 91 100 107 113 122 129 133 131
189 153 181 224 138 150 123 74 41 132 67 60 45 39 27 16 17 3 358 3 1 3 7 13 35 62 56 41 43 42 42 54 75 84 88 92 102 109 111 110 118 127 133 144
183 179 198 223 146 144 131 102 55 90 57 40 26 14 14 16 6 357 359 359 358 351 350 356 5 15 24 36 38 41 50 54 72 89 91 94 102 104 109 113 109 114 126 129